Location: Newark
(34.6000°N, 98.3833°W)
Time: 05:15:26
(UTC+00:00)

N. Korean satellite - Pass Details

Date: 23 October 2019
Orbit: 456 x 506 km, 97.2° (Epoch: 12 November)

Event Time Altitude Azimuth Distance (km) Brightness Sun altitude
Rises 11:25:23 0° 35° (NE) 2,575 10.7 -17.2°
Reaches altitude 10° 11:28:22 10° 63° (ENE) 1,698 10.2 -16.6°
Maximum altitude 11:30:15 14° 94° (E) 1,489 10.3 -16.2°
Drops below altitude 10° 11:32:08 10° 125° (SE) 1,702 10.2 -15.8°
Sets 11:35:07 0° 152° (SSE) 2,587 10.7 -15.2°
